#timestamp,LO_Frequency,Hit,StdDev 
1617069615.1,286047002.6,N
1617069635.9,286047000.9,N
1617069655.7,286047002.6,N
1617069675.5,286047002.6,N
1617069695.4,286047001.1,N
1617069715.2,286047001.0,N
1617069735.1,286046998.9,N
1617069736.0,286046998.9,N
1617069755.8,286047002.3,N
1617069775.6,286046998.3,N
1617069795.5,286046998.7,N
1617069815.3,286047001.2,N
1617069835.1,286046996.8,N
1617069855.9,286046997.6,N
1617069875.7,286046997.8,N
1617069895.6,286046994.9,Y
1617069915.4,286046997.6,P
1617069935.2,286046996.8,N
1617069955.1,286046998.0,N
1617069956.0,286046998.0,N
1617069975.8,286047001.2,N
1617069995.7,286046998.1,N
1617070015.5,286046998.2,N
1617070035.3,286046999.5,N
1617070055.2,286046998.5,N
1617070075.9,286046998.6,N
1617070095.7,286046998.3,N
1617070115.6,286046999.4,N
1617070135.4,286046999.5,N
1617070155.2,286046998.6,N
1617070175.1,286047000.3,N
1617070176.0,286047000.3,N
1617070195.8,286046999.8,N
1617070215.7,286046998.5,N
1617070235.5,286047000.3,N
1617070255.3,286047000.5,N
1617070275.2,286046998.7,N
1617070295.0,286046998.5,N
1617070295.9,286046998.5,N
1617070315.7,286046997.2,N
1617070335.6,286046996.9,N
1617070355.4,286046997.1,N
1617070375.3,286046995.4,Y
1617070395.1,286046997.1,P
1617070415.8,286046999.2,N
1617070435.7,286046999.4,N
1617070455.5,286047000.0,N
1617070475.3,286047000.3,N
1617070495.2,286047001.1,N
1617070515.0,286046999.7,N
1617070515.9,286046999.7,N
1617070535.8,286047001.6,N
1617070555.6,286047002.5,N
1617070575.4,286047003.9,N
1617070595.3,286047001.8,N
1617070615.1,286047003.8,N
1617070635.8,286047003.6,N
1617070655.7,286047004.2,N
1617070675.5,286046999.8,N
1617070695.4,286047001.7,N
1617070715.2,286047002.1,N
1617070735.0,286047000.2,N
1617070735.9,286047000.2,N
1617070755.8,286046999.7,N
1617070775.6,286047002.8,N
1617070795.4,286047002.4,N
1617070815.3,286047001.5,N
1617070835.1,286047002.2,N
1617070855.9,286047002.4,N
1617070875.7,286047002.5,N
1617070895.5,286047004.0,N
1617070915.4,286047002.8,N
1617070935.2,286047002.5,N
1617070955.0,286047002.2,N
1617070955.9,286047002.2,N
1617070975.8,286046999.8,N
1617070995.6,286047000.0,N
1617071015.5,286047002.2,N
1617071035.3,286047002.8,N
1617071055.1,286047000.8,N
1617071075.9,286047001.2,N
1617071095.7,286047002.3,N
1617071115.5,286047002.2,N
1617071135.4,286047002.7,N
1617071155.2,286047002.4,N
1617071175.1,286047002.4,N
1617071176.0,286047002.4,N
1617071195.8,286047002.2,N
1617071215.6,286047001.6,N
1617071235.5,286047001.4,N
1617071255.3,286047004.0,Y
1617071275.1,286047002.8,P
1617071295.9,286046998.1,P
1617071315.7,286047000.3,N
1617071335.6,286046998.5,N
1617071355.4,286047002.3,N
1617071375.2,286047002.5,N
1617071395.1,286047001.9,N
1617071396.0,286047001.9,N
1617071415.8,286047004.2,N
1617071435.6,286047002.2,N
1617071455.5,286047000.6,N
1617071475.3,286047001.9,N
1617071495.2,286047001.5,N
1617071515.9,286047004.2,N
1617071535.7,286047004.4,N
1617071555.6,286047001.6,N
1617071575.4,286047004.3,N
1617071595.2,286047000.6,N
1617071615.1,286046998.5,N
1617071616.0,286046998.5,N
1617071635.8,286047000.4,N
1617071655.7,286047000.3,N
1617071675.5,286046998.3,N
1617071695.3,286047001.1,N
1617071715.2,286047001.2,N
1617071735.9,286046998.6,N
1617071755.7,286047001.0,N
1617071775.6,286047001.6,N
1617071795.4,286047003.5,N
1617071815.2,286047004.2,N
1617071835.1,286047002.1,N
1617071836.0,286047002.1,N
1617071855.8,286047002.8,N
1617071875.7,286047002.6,N
1617071895.5,286047000.2,N
1617071915.3,286047001.1,N
1617071935.2,286046999.0,N
1617071955.0,286046998.8,N
1617071955.9,286046998.8,N
1617071975.8,286047000.7,N
1617071995.6,286047000.8,N
1617072015.4,286047002.2,N
1617072035.3,286047001.5,N
1617072055.1,286047004.4,N
1617072075.8,286047002.5,N
1617072095.7,286047000.6,N
1617072115.5,286047001.5,N
1617072135.4,286047002.3,N
1617072155.2,286046999.8,N
1617072175.0,286047002.7,N
1617072175.9,286047002.7,N
1617072195.8,286047000.1,N
1617072215.6,286047001.4,N
1617072235.4,286047001.4,N
1617072255.3,286047008.8,Y
1617072275.1,286047005.2,P
1617072295.9,286047004.7,N
1617072315.7,286047007.0,P
1617072335.5,286047008.4,Y
1617072355.4,286047002.4,P
1617072375.2,286047002.1,N
1617072395.0,286047002.8,N
1617072395.9,286047002.8,N
1617072415.8,286047002.3,N
1617072435.6,286047000.0,N
1617072455.5,286046998.9,N
1617072475.3,286046996.5,N
1617072495.1,286046997.0,N
1617072515.9,286047000.8,N
1617072535.7,286047000.8,N
1617072555.5,286047002.1,N
1617072575.4,286047001.7,N
1617072595.2,286047004.3,N
1617072615.1,286047001.9,N
1617072616.0,286047001.9,N
1617072635.8,286047001.9,N
1617072655.6,286046999.7,N
1617072675.5,286046998.6,N
1617072695.3,286047000.2,N
1617072715.1,286046998.7,N
1617072735.9,286046998.8,N
1617072755.7,286046998.9,N
1617072775.6,286046998.3,N
1617072795.4,286047000.5,N
1617072815.2,286047000.8,N
1617072835.1,286047002.2,N
1617072836.0,286047002.2,N
1617072855.8,286047000.0,N
1617072875.6,286047001.8,N
1617072895.5,286047001.8,N
1617072915.3,286047002.7,N
1617072935.2,286047001.8,N
1617072955.9,286047001.3,N
1617072975.7,286047002.0,N
1617072995.6,286046999.8,N
1617073015.4,286047002.6,N
1617073035.2,286047001.7,N
1617073055.1,286047001.7,N
1617073056.0,286047001.7,N
1617073075.8,286047002.3,N
1617073095.7,286047002.0,N
1617073115.5,286047002.2,N
1617073135.3,286047001.3,N
1617073155.2,286047003.9,N
1617073175.0,286047004.2,N
1617073175.9,286047004.2,N
1617073195.7,286047001.3,N
